Starlink 30533

operational
NORAD ID: 58037 Int'l Des: 2023-156 Owner: SPXS Country: US Constellation: starlink
LEOCIRCULAR

About Starlink 30533

Description loading...

Live Position

Loading 3D Globe...

Upcoming Passes

Altitude History

Altitude vs Time

uPlot chart will show altitude changes over time

Two-Line Element Set

1 58037U 23156K 25258.72013830 .00000804 00000-0 39282-4 0 9996
2 58037 53.1586 260.9197 0001182 91.8808 268.2328 15.30195512108241
Epoch: Sep 15, 2025 • Age: 16 hours

Current Status

Altitude 476.2 km
Velocity 7.63 km/s
Sub-Earth Point -0.44°S, 127.65°E
Launch Date Oct 9, 2023
Age 1.9 years
Type internet

Technical Details

Classification Payload
Mass 730.00 kg
Dry Mass 700.00 kg
Total Mass 730.00 kg
Length 0.30 m
Diameter 4.10 m
Span 29.00 m
Shape Box + pan
Manufacturer SPXS
Bus Type Starlink V2M
Phase Status In Orbit
Owner/State SPXS/US

Large Constellations

Loading constellations...